Weather in Caracas

Venezuela     10°29′09″N   66°54′25″W
temp.,
°C
wind,
m/s
gust,
m/s
humid.,
%
clouds,
%
prec.,
mm/h
press.,
hPa
HPBL,
m
4 december, sat
sat423:00+18se1295100 0.0 101564
02:00+17sse22947 0.0 101445
05:00+17sse22915 0.0 101448
08:00+20sse128436 0.0 1016110
11:00+25nnw125888 0.0 10151246
14:00+26w135586 0.0 10121575
17:00+22w248314 0.3 1012379
20:00+18s129021 0.3 101454
5 december, sun
sun523:00+17sse22848 0.0 101657
02:00+17sse22805 0.0 101456
05:00+17sse228510 0.0 101552
08:00+20sse22805 0.0 1016151
11:00+25w125882 0.0 10161397
14:00+24w236653 0.4 10131039
17:00+22wsw138195 0.9 1012338
20:00+18se129062 1.1 1015112
6 december, mon
mon623:00+18se23927 0.0 1016109
02:00+17sse229118 0.0 101564
05:00+17sse229111 0.0 101557
08:00+20se13805 0.0 1017217
11:00+25ene24569 0.0 10161299
14:00+23nne127871 0.9 1013349
17:00+22ene238315 1.6 1013333
20:00+18ese23929 1.6 1015134
7 december, tue
tue723:00+17ese139431 0.0 1016148
02:00+17se239517 0.0 101590
05:00+17se22946 0.0 101558
08:00+19se12865 0.0 1016191
11:00+25ne136044 0.0 10151306
14:00+22nnw128170 0.9 1012407
17:00+21nne128730 1.3 1011204
20:00+18ese129414 1.4 101469
8 december, wed
wed823:00+16se23898 0.0 101582
02:00+16sse22935 0.0 101451
05:00+16sse22865 0.0 101442
08:00+19se127649 0.0 101588
11:00+25n12555 0.0 10151234
14:00+22n228073 0.4 1012430
17:00+21nnw129116 1.3 1012163
20:00+18ese119517 1.4 101486